| time (UTC) | temp C | wind direction | speed KPH | gust KPH | rain 1hr cm | rain 24hr cm | rain mn cm | humidity % | barometer mb |
| 20260901005416 | 27 | 330 | 1.6 | 1.6 | 0.00 | 0.66 | 0.00 | 78 | 1011.7 |
| 20260901004416 | 27 | 280 | 1.6 | 3.2 | 0.00 | 0.66 | 0.00 | 78 | 1011.6 |
| 20260901003416 | 27 | 0.0 | 1.6 | 0.00 | 0.66 | 0.00 | 79 | 1011.6 | |
| 20260901002416 | 27 | 289 | 8.0 | 11.3 | 0.00 | 0.66 | 0.00 | 79 | 1011.4 |
| 20260901001436 | 27 | 291 | 12.9 | 14.5 | 0.00 | 0.66 | 0.00 | 78 | 1011.6 |
| 20260901000416 | 28 | 307 | 16.1 | 24.1 | 0.00 | 0.66 | 0.00 | 79 | 1011.6 |
| 20260831235416 | 28 | 320 | 12.9 | 17.7 | 0.00 | 0.66 | 0.66 | 81 | 1011.6 |
| 20260831234416 | 28 | 314 | 4.8 | 6.4 | 0.00 | 0.66 | 0.66 | 81 | 1011.3 |
| 20260831233416 | 28 | 0.0 | 0.0 | 0.00 | 0.66 | 0.66 | 80 | 1011.3 | |
| 20260831232417 | 28 | 271 | 1.6 | 3.2 | 0.00 | 0.66 | 0.66 | 80 | 1011.4 |
| 20260831231517 | 28 | 114 | 1.6 | 6.4 | 0.00 | 0.66 | 0.66 | 80 | 1011.3 |
| 20260831230416 | 28 | 133 | 6.4 | 9.7 | 0.00 | 0.66 | 0.66 | 79 | 1011.1 |
| 20260831225416 | 28 | 187 | 6.4 | 8.0 | 0.00 | 0.66 | 0.66 | 81 | 1011.4 |
| 20260831224416 | 28 | 239 | 1.6 | 3.2 | 0.00 | 0.66 | 0.66 | 84 | 1011.5 |
| 20260831223457 | 27 | 218 | 3.2 | 6.4 | 0.00 | 0.66 | 0.66 | 85 | 1011.6 |
| 20260831222416 | 27 | 305 | 3.2 | 6.4 | 0.03 | 0.66 | 0.66 | 87 | 1011.8 |
| 20260831221416 | 26 | 300 | 8.0 | 11.3 | 0.18 | 0.66 | 0.66 | 91 | 1012.1 |
| 20260831220457 | 25 | 57 | 3.2 | 4.8 | 0.51 | 0.66 | 0.66 | 96 | 1011.8 |
| 20260831215417 | 25 | 188 | 4.8 | 4.8 | 0.58 | 0.66 | 0.66 | 96 | 1011.4 |
| 20260831214416 | 24 | 225 | 1.6 | 4.8 | 0.61 | 0.66 | 0.66 | 95 | 1010.8 |
| 20260831212416 | 24 | 124 | 20.9 | 27.4 | 0.64 | 0.64 | 0.64 | 92 | 1011.9 |
| 20260831211417 | 27 | 178 | 19.3 | 30.6 | 0.48 | 0.48 | 0.48 | 81 | 1012.1 |
| 20260831210417 | 28 | 191 | 17.7 | 30.6 | 0.15 | 0.15 | 0.15 | 78 | 1012.1 |
| 20260831205416 | 32 | 206 | 30.6 | 35.4 | 0.08 | 0.08 | 0.08 | 69 | 1011.9 |
| 20260831204416 | 35 | 107 | 12.9 | 17.7 | 0.05 | 0.05 | 0.05 | 61 | 1011.7 |
| 20260831203436 | 36 | 102 | 4.8 | 9.7 | 0.00 | 0.00 | 0.00 | 53 | 1011.8 |
| 20260831202417 | 36 | 328 | 8.0 | 8.0 | 0.00 | 0.00 | 0.00 | 52 | 1011.7 |
| 20260831201416 | 37 | 238 | 4.8 | 4.8 | 0.00 | 0.00 | 0.00 | 49 | 1012.0 |
| 20260831200416 | 37 | 123 | 0.0 | 4.8 | 0.00 | 0.00 | 0.00 | 50 | 1012.2 |
| 20260831195416 | 36 | 123 | 6.4 | 8.0 | 0.00 | 0.00 | 0.00 | 52 | 1012.3 |
| 20260831194416 | 36 | 93 | 3.2 | 6.4 | 0.00 | 0.00 | 0.00 | 52 | 1012.4 |
| 20260831193416 | 36 | 80 | 6.4 | 8.0 | 0.00 | 0.00 | 0.00 | 52 | 1012.6 |
| 20260831192437 | 36 | 127 | 4.8 | 6.4 | 0.00 | 0.00 | 0.00 | 52 | 1012.8 |
| 20260831191416 | 37 | 145 | 9.7 | 11.3 | 0.00 | 0.00 | 0.00 | 50 | 1013.0 |
| 20260831190416 | 37 | 156 | 6.4 | 8.0 | 0.00 | 0.00 | 0.00 | 51 | 1013.1 |
| 20260831185436 | 36 | 344 | 4.8 | 6.4 | 0.00 | 0.00 | 0.00 | 55 | 1013.2 |
| 20260831184457 | 36 | 296 | 6.4 | 6.4 | 0.00 | 0.00 | 0.00 | 53 | 1013.3 |
| 20260831183416 | 36 | 224 | 4.8 | 8.0 | 0.00 | 0.00 | 0.00 | 54 | 1013.3 |
| 20260831182416 | 36 | 181 | 3.2 | 11.3 | 0.00 | 0.00 | 0.00 | 56 | 1013.6 |
| 20260831181416 | 35 | 358 | 1.6 | 4.8 | 0.00 | 0.00 | 0.00 | 58 | 1013.5 |
| 20260831180436 | 35 | 129 | 9.7 | 14.5 | 0.00 | 0.00 | 0.00 | 59 | 1013.6 |
| 20260831175416 | 34 | 63 | 9.7 | 12.9 | 0.00 | 0.00 | 0.00 | 60 | 1013.7 |
| 20260831174438 | 34 | 96 | 9.7 | 14.5 | 0.00 | 0.00 | 0.00 | 62 | 1013.7 |
| 20260831173437 | 35 | 122 | 11.3 | 14.5 | 0.00 | 0.00 | 0.00 | 61 | 1013.9 |
| 20260831172416 | 35 | 186 | 4.8 | 11.3 | 0.00 | 0.00 | 0.00 | 61 | 1013.8 |
| 20260831171416 | 35 | 115 | 8.0 | 11.3 | 0.00 | 0.00 | 0.00 | 63 | 1013.7 |
| 20260831170416 | 34 | 190 | 4.8 | 6.4 | 0.00 | 0.00 | 0.00 | 64 | 1013.7 |
| 20260831165417 | 33 | 166 | 4.8 | 6.4 | 0.00 | 0.00 | 0.00 | 67 | 1013.7 |
| 20260831164416 | 33 | 121 | 8.0 | 11.3 | 0.00 | 0.00 | 0.00 | 68 | 1013.8 |
| 20260831163416 | 33 | 131 | 8.0 | 12.9 | 0.00 | 0.00 | 0.00 | 68 | 1013.8 |
| 20260831162416 | 32 | 128 | 9.7 | 16.1 | 0.00 | 0.00 | 0.00 | 70 | 1013.9 |
| 20260831161437 | 32 | 158 | 9.7 | 20.9 | 0.00 | 0.00 | 0.00 | 72 | 1014.0 |
| 20260831160416 | 32 | 162 | 8.0 | 14.5 | 0.00 | 0.00 | 0.00 | 74 | 1014.0 |
| 20260831155416 | 31 | 141 | 11.3 | 17.7 | 0.00 | 0.00 | 0.00 | 76 | 1013.9 |
| 20260831154416 | 31 | 131 | 14.5 | 17.7 | 0.00 | 0.00 | 0.00 | 78 | 1013.9 |
| 20260831153438 | 31 | 141 | 9.7 | 12.9 | 0.00 | 0.00 | 0.00 | 81 | 1013.9 |
| 20260831152416 | 30 | 133 | 8.0 | 12.9 | 0.00 | 0.00 | 0.00 | 83 | 1014.1 |
| 20260831151436 | 30 | 140 | 12.9 | 19.3 | 0.00 | 0.00 | 0.00 | 83 | 1014.1 |
| 20260831150417 | 30 | 128 | 9.7 | 12.9 | 0.00 | 0.00 | 0.00 | 83 | 1013.9 |
| 20260831145436 | 30 | 130 | 12.9 | 17.7 | 0.00 | 0.00 | 0.00 | 82 | 1013.7 |
| 20260831144417 | 30 | 140 | 9.7 | 12.9 | 0.00 | 0.00 | 0.00 | 84 | 1013.7 |
| 20260831143436 | 30 | 140 | 11.3 | 20.9 | 0.00 | 0.00 | 0.00 | 85 | 1013.7 |
| 20260831142416 | 30 | 162 | 17.7 | 27.4 | 0.00 | 0.00 | 0.00 | 87 | 1013.6 |
| 20260831141416 | 29 | 160 | 9.7 | 14.5 | 0.00 | 0.00 | 0.00 | 88 | 1013.5 |
| 20260831140416 | 28 | 157 | 11.3 | 14.5 | 0.00 | 0.00 | 0.00 | 89 | 1013.5 |
| 20260831135417 | 28 | 166 | 4.8 | 9.7 | 0.00 | 0.00 | 0.00 | 89 | 1013.5 |
| 20260831134416 | 28 | 170 | 4.8 | 4.8 | 0.00 | 0.00 | 0.00 | 89 | 1013.3 |
| 20260831133416 | 28 | 153 | 8.0 | 12.9 | 0.00 | 0.00 | 0.00 | 89 | 1013.2 |
| 20260831132416 | 28 | 158 | 11.3 | 14.5 | 0.00 | 0.00 | 0.00 | 89 | 1013.1 |
| 20260831131416 | 28 | 141 | 8.0 | 11.3 | 0.00 | 0.00 | 0.00 | 89 | 1013.0 |
| 20260831130416 | 28 | 158 | 9.7 | 11.3 | 0.00 | 0.00 | 0.00 | 89 | 1013.0 |
| 20260831125416 | 28 | 148 | 14.5 | 19.3 | 0.00 | 0.00 | 0.00 | 88 | 1012.9 |
| 20260831124416 | 28 | 150 | 14.5 | 17.7 | 0.00 | 0.00 | 0.00 | 88 | 1012.6 |
| 20260831123416 | 28 | 175 | 11.3 | 17.7 | 0.00 | 0.00 | 0.00 | 88 | 1012.6 |
| 20260831122436 | 28 | 164 | 9.7 | 14.5 | 0.00 | 0.00 | 0.00 | 88 | 1012.5 |
| 20260831121438 | 28 | 165 | 11.3 | 12.9 | 0.00 | 0.00 | 0.00 | 87 | 1012.4 |
| 20260831120416 | 29 | 142 | 6.4 | 9.7 | 0.00 | 0.00 | 0.00 | 86 | 1012.2 |
| 20260831115416 | 29 | 135 | 6.4 | 9.7 | 0.00 | 0.00 | 0.00 | 85 | 1012.2 |
| 20260831114418 | 29 | 146 | 6.4 | 9.7 | 0.00 | 0.00 | 0.00 | 84 | 1012.0 |
| 20260831113416 | 29 | 178 | 6.4 | 9.7 | 0.00 | 0.00 | 0.00 | 83 | 1012.0 |
| 20260831112436 | 29 | 144 | 9.7 | 14.5 | 0.00 | 0.00 | 0.00 | 83 | 1012.0 |
| 20260831111416 | 29 | 155 | 4.8 | 6.4 | 0.00 | 0.00 | 0.00 | 83 | 1012.0 |
| 20260831110417 | 29 | 147 | 8.0 | 9.7 | 0.00 | 0.00 | 0.00 | 82 | 1012.0 |
| 20260831105416 | 29 | 165 | 6.4 | 8.0 | 0.00 | 0.00 | 0.00 | 82 | 1011.9 |
| 20260831104417 | 30 | 165 | 6.4 | 8.0 | 0.00 | 0.00 | 0.00 | 81 | 1011.9 |
| 20260831103416 | 30 | 153 | 4.8 | 4.8 | 0.00 | 0.00 | 0.00 | 80 | 1012.0 |
| 20260831102416 | 30 | 140 | 1.6 | 4.8 | 0.00 | 0.00 | 0.00 | 80 | 1012.0 |
| 20260831101416 | 30 | 81 | 1.6 | 3.2 | 0.00 | 0.00 | 0.00 | 79 | 1011.8 |
| 20260831100416 | 30 | 0.0 | 0.0 | 0.00 | 0.00 | 0.00 | 80 | 1011.7 | |
| 20260831095416 | 30 | 87 | 0.0 | 1.6 | 0.00 | 0.00 | 0.00 | 80 | 1011.7 |
| 20260831094436 | 30 | 0.0 | 0.0 | 0.00 | 0.00 | 0.00 | 80 | 1011.7 | |
| 20260831093416 | 30 | 0.0 | 0.0 | 0.00 | 0.00 | 0.00 | 80 | 1011.6 | |
| 20260831092417 | 30 | 0.0 | 0.0 | 0.00 | 0.00 | 0.00 | 80 | 1011.6 | |
| 20260831091417 | 30 | 0.0 | 0.0 | 0.00 | 0.00 | 0.00 | 80 | 1011.6 | |
| 20260831090417 | 30 | 0.0 | 0.0 | 0.00 | 0.00 | 0.00 | 80 | 1011.7 | |
| 20260831085416 | 30 | 0.0 | 0.0 | 0.00 | 0.00 | 0.00 | 80 | 1011.8 | |
| 20260831084416 | 30 | 0.0 | 0.0 | 0.00 | 0.00 | 0.00 | 80 | 1011.7 | |
| 20260831083436 | 30 | 0.0 | 0.0 | 0.00 | 0.00 | 0.00 | 80 | 1011.8 | |
| 20260831082416 | 30 | 0.0 | 0.0 | 0.00 | 0.00 | 0.00 | 80 | 1011.8 | |
| 20260831081416 | 30 | 0.0 | 0.0 | 0.00 | 0.00 | 0.00 | 81 | 1011.8 | |
| 20260831080416 | 30 | 0.0 | 0.0 | 0.00 | 0.00 | 0.00 | 80 | 1011.9 | |
| 20260831075416 | 30 | 0.0 | 0.0 | 0.00 | 0.00 | 0.00 | 81 | 1012.0 | |
| 20260831074458 | 30 | 301 | 3.2 | 4.8 | 0.00 | 0.00 | 0.00 | 80 | 1011.9 |
| 20260831073416 | 30 | 285 | 1.6 | 1.6 | 0.00 | 0.00 | 0.00 | 80 | 1011.9 |
| 20260831072416 | 30 | 305 | 1.6 | 3.2 | 0.00 | 0.00 | 0.00 | 80 | 1012.0 |
| 20260831071436 | 30 | 323 | 1.6 | 1.6 | 0.00 | 0.00 | 0.00 | 80 | 1012.1 |
| 20260831070416 | 30 | 328 | 3.2 | 4.8 | 0.00 | 0.00 | 0.00 | 80 | 1012.2 |
| 20260831065416 | 31 | 279 | 3.2 | 3.2 | 0.00 | 0.00 | 0.00 | 80 | 1012.2 |
| 20260831064416 | 31 | 298 | 6.4 | 6.4 | 0.00 | 0.00 | 0.00 | 80 | 1012.1 |
| 20260831063416 | 31 | 305 | 3.2 | 8.0 | 0.00 | 0.00 | 0.00 | 80 | 1012.2 |
| 20260831062416 | 31 | 299 | 3.2 | 6.4 | 0.00 | 0.00 | 0.00 | 79 | 1012.2 |
| 20260831061436 | 31 | 301 | 3.2 | 3.2 | 0.00 | 0.00 | 0.00 | 78 | 1012.2 |
| 20260831060417 | 31 | 243 | 3.2 | 4.8 | 0.00 | 0.00 | 0.00 | 78 | 1012.2 |
| 20260831055416 | 31 | 246 | 3.2 | 6.4 | 0.00 | 0.00 | 0.00 | 77 | 1012.2 |
| 20260831054417 | 31 | 296 | 4.8 | 6.4 | 0.00 | 0.00 | 0.00 | 77 | 1012.4 |
| 20260831053416 | 31 | 243 | 1.6 | 4.8 | 0.00 | 0.00 | 0.00 | 77 | 1012.4 |
| 20260831052416 | 31 | 309 | 1.6 | 4.8 | 0.00 | 0.00 | 0.00 | 76 | 1012.5 |
| 20260831051416 | 31 | 275 | 3.2 | 4.8 | 0.00 | 0.00 | 0.00 | 76 | 1012.5 |
| 20260831050436 | 31 | 296 | 4.8 | 4.8 | 0.00 | 0.00 | 0.00 | 76 | 1012.6 |
| 20260831045416 | 31 | 253 | 0.0 | 1.6 | 0.00 | 0.00 | 0.00 | 75 | 1012.7 |
| 20260831044416 | 31 | 296 | 6.4 | 9.7 | 0.00 | 0.00 | 0.00 | 75 | 1012.6 |
| 20260831043416 | 31 | 301 | 6.4 | 8.0 | 0.00 | 0.00 | 0.00 | 74 | 1012.6 |
| 20260831042416 | 31 | 293 | 8.0 | 9.7 | 0.00 | 0.00 | 0.00 | 74 | 1012.4 |
| 20260831041516 | 32 | 296 | 6.4 | 8.0 | 0.00 | 0.00 | 0.00 | 72 | 1012.5 |
| 20260831040416 | 32 | 288 | 6.4 | 9.7 | 0.00 | 0.00 | 0.00 | 71 | 1012.2 |
| 20260831035416 | 32 | 296 | 11.3 | 12.9 | 0.00 | 0.00 | 0.00 | 69 | 1012.1 |
| 20260831034417 | 32 | 284 | 9.7 | 16.1 | 0.00 | 0.00 | 0.00 | 67 | 1011.9 |
| 20260831033417 | 33 | 294 | 9.7 | 14.5 | 0.00 | 0.00 | 0.00 | 65 | 1011.6 |
| 20260831032416 | 33 | 281 | 6.4 | 9.7 | 0.00 | 0.00 | 0.00 | 64 | 1011.4 |
| 20260831031416 | 33 | 255 | 4.8 | 11.3 | 0.00 | 0.00 | 0.00 | 62 | 1011.0 |
| 20260831030416 | 33 | 231 | 17.7 | 19.3 | 0.00 | 0.00 | 0.00 | 62 | 1010.9 |
| 20260831025416 | 33 | 254 | 14.5 | 19.3 | 0.00 | 0.00 | 0.00 | 61 | 1010.7 |
| 20260831024417 | 34 | 249 | 12.9 | 16.1 | 0.00 | 0.00 | 0.00 | 59 | 1010.5 |
| 20260831023417 | 35 | 264 | 6.4 | 9.7 | 0.00 | 0.00 | 0.00 | 55 | 1010.3 |
| 20260831022416 | 36 | 255 | 8.0 | 17.7 | 0.00 | 0.00 | 0.00 | 52 | 1010.3 |
| 20260831021436 | 36 | 252 | 6.4 | 9.7 | 0.00 | 0.00 | 0.00 | 49 | 1010.0 |
| 20260831020416 | 36 | 247 | 6.4 | 11.3 | 0.00 | 0.00 | 0.00 | 47 | 1009.9 |
| 20260831015416 | 36 | 236 | 6.4 | 11.3 | 0.00 | 0.00 | 0.00 | 47 | 1009.8 |
| 20260831014436 | 36 | 235 | 6.4 | 8.0 | 0.00 | 0.00 | 0.00 | 47 | 1009.8 |
| 20260831013416 | 37 | 217 | 9.7 | 14.5 | 0.00 | 0.00 | 0.00 | 46 | 1009.7 |
| 20260831012416 | 37 | 249 | 6.4 | 11.3 | 0.00 | 0.00 | 0.00 | 46 | 1009.8 |
| 20260831011416 | 37 | 225 | 4.8 | 6.4 | 0.00 | 0.00 | 0.00 | 45 | 1009.9 |
| 20260831010436 | 37 | 238 | 4.8 | 8.0 | 0.00 | 0.00 | 0.00 | 45 | 1009.8 |